Вернуться в каталог

COSMOS 1814 DEB *

АктивенLEO
NORAD 18257·DEBRIS·🇷🇺 Russia

Запущен Jan 21, 1987 с Plesetsk Cosmodrome

Loading…

Ближайшие Пролёты (ближайшие 24 часа)

TLE

СвежийSource: Space-Track

Эпоха: Sep 14, 2026, 23:06 UTC

1 18257U 87006C   26257.96314043  .00001727  00000-0  28042-3 0  9992
2 18257  74.0331 150.8384 0006158 240.9637 119.0919 14.71968268168336

Отслеживайте COSMOS 1814 DEB * в реальном времени с AllMySat

Download on the App Store